Location: Palomar Mountain Lodge
(33.3110°N, 116.8495°W)
Time: 06:47:13
(UTC-07:00)

Cosmos 2228 - Pass Details

Date: 14 June 2018
Orbit: 589 x 619 km, 82.5° (Epoch: 22 September)

Event Time Altitude Azimuth Distance (km) Brightness Sun altitude
Rises 21:06:34 0° 349° (N) 2,879 7.3 -12.7°
Reaches altitude 10° 21:08:48 10° 347° (NNW) 1,974 6.5 -13.0°
Maximum altitude 21:13:08 64° 266° (W) 685 3.4 -13.7°
Drops below altitude 10° 21:17:27 10° 185° (S) 1,972 5.3 -14.4°
Enters shadow 21:17:46 - 185° (S) 2,097 5.4 -14.5°
